Location: Austin
(30.3000°N, 97.7500°W)
Time: 04:27:47
(UTC-06:00)

Cosmos 2123 Rocket - Pass Details

Date: 05 February 2026
Orbit: 961 x 991 km, 82.9° (Epoch: 15 February)

Event Time Altitude Azimuth Distance (km) Brightness Sun altitude
Rises 06:06:27 0° 356° (N) 3,677 6.9 -16.1°
Reaches altitude 10° 06:09:00 10° 359° (N) 2,722 6.2 -15.5°
Maximum altitude 06:15:13 74° 84° (E) 1,006 4.2 -14.2°
Drops below altitude 10° 06:21:22 10° 169° (S) 2,691 6.6 -12.9°
Sets 06:23:52 0° 171° (S) 3,631 7.3 -12.4°
